Change the Weather History Date:

Saturday, February 16, 2013

  Actual Average (KGSO) Record (KGSO)
Temperature  
Mean Temperature 36 °F 43 °F  
Max Temperature 42 °F 53 °F 76 °F (1927)
Min Temperature 30 °F 33 °F 8 °F (1905)
Degree Days  
Heating Degree Days 30 22  
Month to date heating degree days 381  
Since 1 July heating degree days 2604  
Cooling Degree Days 0 0  
Month to date cooling degree days 0  
Year to date cooling degree days 0  
Moisture  
Dew Point 25 °F    
Average Humidity 63    
Maximum Humidity 89    
Minimum Humidity 41    
Precipitation  
Precipitation 0.01 in 0.11 in 2.22 in (1942)
Month to date precipitation 1.60  
Year to date precipitation 4.66  
Snow  
Snow 0.00 in 0.10 in 2.70 in (1996)
Month to date snowfall 1.4  
Since 1 July snowfall 5.7  
Snow Depth -    
Sea Level Pressure  
Sea Level Pressure 29.94 in    
Wind  
Wind Speed 5 mph (NE)    
Max Wind Speed 15 mph    
Max Gust Speed 22 mph    
Visibility 10 miles    
Events Rain    
T = Trace of Precipitation, MM = Missing Value Source: NWS Daily Summary

Daily Weather History Graph

Daily Weather History Graph

Search for Another Location

Airport or City:

Trip Planner

Search our weather history database for the weather conditions in past years. The results will help you decide how hot, cold, wet, or windy it might be!

Date:

Astronomy

Feb. 16, 2013 Rise Set
Actual Time 7:06 AM EST 6:01 PM EST
Civil Twilight 6:40 AM EST 6:28 PM EST
Nautical Twilight 6:10 AM EST 6:58 PM EST
Astronomical Twilight 5:40 AM EST 7:28 PM EST
Moon 10:30 AM EST (2/16) No Moon Set
Length of Visible Light 11h 48m
Length of Day
10h 55m
Waxing Crescent, 39% of the Moon is Illuminated
Feb 16
Waxing Crescent
Feb 17
First Quarter
Feb 25
Full
Mar 4
Last Quarter
Mar 11
New

Hourly Weather History & Observations

Time (EST) Temp. Windchill Dew Point Humidity Pressure Visibility Wind Dir Wind Speed Gust Speed Precip Events Conditions
12:15 AM 40.8 °F 35.6 °F 36.0 °F 83% 30.01 in 7.0 mi ENE 8.1 mph 17.3 mph 0.01 in Rain Rain
12:35 AM 40.1 °F 38.0 °F 36.5 °F 87% 30.00 in 10.0 mi ENE 3.5 mph - 0.01 in   Overcast
12:55 AM 39.7 °F - 36.5 °F 88% 30.00 in 10.0 mi Calm Calm - 0.01 in Rain Light Rain
1:15 AM 40.5 °F 38.4 °F 35.4 °F 82% 30.00 in 10.0 mi ENE 3.5 mph - N/A   Overcast
1:35 AM 40.8 °F 37.8 °F 34.2 °F 77% 30.00 in 10.0 mi NE 4.6 mph - N/A   Overcast
1:55 AM 41.0 °F 38.0 °F 32.9 °F 73% 29.99 in 10.0 mi NE 4.6 mph - N/A   Overcast
2:15 AM 40.5 °F - 32.2 °F 72% 29.99 in 10.0 mi Calm Calm - N/A   Overcast
2:35 AM 38.7 °F 36.3 °F 33.8 °F 83% 29.99 in 10.0 mi NNE 3.5 mph - N/A   Overcast
2:55 AM 37.8 °F - 33.4 °F 84% 29.98 in 10.0 mi Calm Calm - N/A   Overcast
3:15 AM 37.4 °F 34.9 °F 34.0 °F 87% 29.98 in 10.0 mi North 3.5 mph - N/A   Overcast
3:35 AM 37.4 °F - 34.0 °F 87% 29.97 in 10.0 mi Calm Calm - N/A   Overcast
3:55 AM 37.6 °F - 34.7 °F 89% 29.97 in 10.0 mi Calm Calm - N/A   Overcast
4:15 AM 39.2 °F 37.0 °F 32.0 °F 75% 29.97 in 10.0 mi NE 3.5 mph - N/A   Overcast
4:35 AM 39.6 °F 37.4 °F 32.0 °F 74% 29.97 in 10.0 mi NE 3.5 mph - N/A   Overcast
4:55 AM 39.7 °F 37.6 °F 31.1 °F 71% 29.97 in 10.0 mi ENE 3.5 mph - N/A   Overcast
5:15 AM 39.7 °F 36.5 °F 30.9 °F 71% 29.98 in 10.0 mi NE 4.6 mph - N/A   Overcast
5:35 AM 39.7 °F 36.5 °F 31.1 °F 71% 29.98 in 10.0 mi NE 4.6 mph - N/A   Overcast
5:55 AM 39.7 °F 37.6 °F 30.9 °F 71% 29.97 in 10.0 mi NE 3.5 mph - N/A   Overcast
6:15 AM 39.6 °F 37.4 °F 30.7 °F 71% 29.97 in 10.0 mi NE 3.5 mph - N/A   Overcast
6:35 AM 39.2 °F 37.0 °F 31.1 °F 73% 29.96 in 10.0 mi NNE 3.5 mph - N/A   Overcast
6:55 AM 39.2 °F 37.0 °F 30.7 °F 72% 29.96 in 10.0 mi NE 3.5 mph - N/A   Overcast
7:15 AM 39.2 °F - 31.8 °F 75% 29.98 in 10.0 mi Calm Calm - N/A   Overcast
7:35 AM 38.8 °F - 31.6 °F 75% 29.97 in 10.0 mi Calm Calm - N/A Rain Light Rain
7:55 AM 38.7 °F - 31.5 °F 75% 29.98 in 10.0 mi Calm Calm - N/A   Overcast
8:15 AM 38.5 °F - 32.7 °F 80% 29.98 in 10.0 mi Calm Calm - N/A   Overcast
8:35 AM 38.8 °F - 33.1 °F 80% 29.98 in 10.0 mi Calm Calm - N/A   Overcast
8:55 AM 39.2 °F - 31.8 °F 75% 29.96 in 10.0 mi Calm Calm - N/A   Overcast
9:15 AM 39.7 °F - 32.7 °F 76% 29.96 in 10.0 mi Calm Calm - N/A   Overcast
9:35 AM 40.1 °F - 33.1 °F 76% 29.95 in 10.0 mi Calm Calm - N/A   Overcast
9:55 AM 40.6 °F 37.5 °F 29.5 °F 64% 29.95 in 10.0 mi ENE 4.6 mph - N/A   Overcast
10:15 AM 41.0 °F 38.0 °F 28.2 °F 60% 29.94 in 10.0 mi East 4.6 mph - N/A   Overcast
10:35 AM 40.5 °F 35.8 °F 28.9 °F 64% 29.94 in 10.0 mi ENE 6.9 mph - N/A   Overcast
1:35 PM 41.0 °F 35.8 °F 24.1 °F 51% 29.88 in 10.0 mi NNE 8.1 mph - N/A   Overcast
1:55 PM 41.4 °F 35.2 °F 25.0 °F 52% 29.88 in 10.0 mi NNE 10.4 mph - N/A   Overcast
2:15 PM 40.3 °F 33.9 °F 23.7 °F 52% 29.88 in 10.0 mi NE 10.4 mph - N/A   Overcast
2:35 PM 40.1 °F 34.1 °F 23.7 °F 52% 29.86 in 10.0 mi NE 9.2 mph - N/A   Overcast
2:55 PM 40.1 °F 34.1 °F 24.4 °F 54% 29.87 in 10.0 mi NNE 9.2 mph - N/A   Overcast
3:15 PM 39.7 °F 33.7 °F 23.7 °F 53% 29.86 in 10.0 mi NE 9.2 mph - N/A   Overcast
3:35 PM 39.6 °F 33.5 °F 23.0 °F 52% 29.87 in 10.0 mi NNE 9.2 mph - N/A   Overcast
3:55 PM 39.4 °F 31.8 °F 21.6 °F 49% 29.86 in 10.0 mi NE 12.7 mph - N/A   Overcast
4:15 PM 41.4 °F 36.2 °F 22.1 °F 46% 29.85 in 10.0 mi NE 8.1 mph - N/A   Mostly Cloudy
4:35 PM 41.7 °F 35.2 °F 20.1 °F 42% 29.85 in 10.0 mi NNE 11.5 mph 18.4 mph N/A   Clear
4:55 PM 40.6 °F 33.8 °F 19.8 °F 43% 29.85 in 10.0 mi NE 11.5 mph 18.4 mph N/A   Clear
5:15 PM 39.4 °F 32.3 °F 17.8 °F 42% 29.86 in 10.0 mi NE 11.5 mph 16.1 mph N/A   Clear
5:35 PM 37.6 °F 29.6 °F 16.7 °F 43% 29.87 in 10.0 mi NE 12.7 mph 18.4 mph N/A   Clear
5:55 PM 36.7 °F 27.6 °F 14.9 °F 41% 29.87 in 10.0 mi NNE 15.0 mph 20.7 mph N/A   Clear
6:15 PM 35.8 °F 27.3 °F 14.9 °F 43% 29.88 in 10.0 mi NNE 12.7 mph 21.9 mph N/A   Clear
6:35 PM 34.9 °F 29.0 °F 15.8 °F 46% 29.89 in 10.0 mi North 6.9 mph - N/A   Clear
6:55 PM 34.5 °F 26.7 °F 16.2 °F 47% 29.90 in 10.0 mi NNE 10.4 mph - N/A   Clear
7:15 PM 34.0 °F 25.5 °F 17.1 °F 50% 29.90 in 10.0 mi NNE 11.5 mph 17.3 mph N/A   Clear
7:35 PM 33.3 °F 25.1 °F 17.6 °F 53% 29.90 in 10.0 mi NNE 10.4 mph 20.7 mph N/A   Clear
7:55 PM 32.5 °F 24.2 °F 17.2 °F 53% 29.91 in 10.0 mi NNE 10.4 mph - N/A   Clear
8:15 PM 32.4 °F 24.6 °F 16.9 °F 53% 29.92 in 10.0 mi NNE 9.2 mph - N/A   Clear
8:35 PM 32.0 °F 24.8 °F 16.5 °F 53% 29.92 in 10.0 mi NE 8.1 mph - N/A   Clear
8:55 PM 32.4 °F 24.6 °F 15.6 °F 50% 29.92 in 10.0 mi NNE 9.2 mph - N/A   Clear
9:15 PM 32.2 °F 23.8 °F 14.7 °F 49% 29.93 in 10.0 mi NE 10.4 mph 19.6 mph N/A   Clear
9:35 PM 32.4 °F 24.6 °F 14.7 °F 48% 29.93 in 10.0 mi NNE 9.2 mph 16.1 mph N/A   Clear
9:55 PM 32.0 °F 23.6 °F 15.1 °F 50% 29.94 in 10.0 mi NNE 10.4 mph - N/A   Clear
10:15 PM 32.0 °F 21.6 °F 14.9 °F 49% 29.94 in 10.0 mi NNE 15.0 mph 20.7 mph N/A   Clear
10:35 PM 32.0 °F 23.6 °F 15.3 °F 50% 29.94 in 10.0 mi NE 10.4 mph 19.6 mph N/A   Clear
10:55 PM 31.6 °F 23.7 °F 15.8 °F 52% 29.94 in 10.0 mi NNE 9.2 mph - N/A   Clear
11:15 PM 31.5 °F 23.5 °F 16.3 °F 54% 29.93 in 10.0 mi NNE 9.2 mph - N/A   Clear
11:35 PM 30.7 °F 27.3 °F 16.7 °F 56% 29.94 in 10.0 mi North 3.5 mph - N/A   Clear
11:55 PM 30.6 °F - 16.9 °F 57% 29.94 in 10.0 mi Calm Calm - N/A   Clear